User: anonymous   Login
Location: Newsoms
(36.6240°N, 77.1250°W)
Time: 18:28:53
(UTC-04:00)
Language:

BREEZE-M DEB (TANK) - Orbit

View from above orbital plane
View from above orbital plane
View from above satellite
View from above satellite

Ground track
Ground track

The orbit data is extracted from the following two-line orbital elements,

1 29649U 06056B   16240.73565326 +.00001803 +00000-0 +33276-3 0  9993
2 29649 049.4874 088.1308 5386334 338.4083 005.5922 04.98749793173135
Epoch (UTC): 27 August 2016 17:39:20
Eccentricity: 0.5386334
inclination: 49.4874°
perigee height: 298 km
apogee height: 15886 km
right ascension of ascending node: 88.1308°
argument of perigee: 338.4083°
revolutions per day: 4.98749793
mean anomaly at epoch: 5.5922°
orbit number at epoch: 17313

The dashed part of the orbit path shows where the satellite is in the earth's shadow,  

DLR